Voltar ao catálogo

STARLINK-37037

AtivoComunicaçõesVLEO
NORAD 68084·PAYLOAD·🇺🇸 United States

Lançado Mar 4, 2026 de Vandenberg Space Force Base

Loading…

Próximas Passagens (próximas 24 horas)

TLE

AtualizadoSource: CelesTrak SupGP

Época: Sep 15, 2026, 03:05 UTC

1 68084C 26042R   26258.12895833  .00052305  00000+0  15457-2 0  2588
2 68084  53.1598  14.6324 0001201  90.1961  59.6369 15.34357463    19

Acompanhe STARLINK-37037 em tempo real com AllMySat

Download on the App Store